Time,TemperatureF,DewpointF,PressureIn,WindDirection,WindDirectionDegrees,WindSpeedMPH,WindSpeedGustMPH,Humidity,HourlyPrecipIn,Conditions,Clouds,dailyrainin,SoftwareType,DateUTC
2013-01-11 00:00:00,26.1,18.3,30.44,NNE,22,0.0,0.9,72,0.00,,---,0.00,VWS V14.00,2013-01-11 05:00:00,
2013-01-11 00:01:00,25.9,18.1,30.44,NNE,22,0.0,0.0,72,0.00,,---,0.00,VWS V14.00,2013-01-11 05:01:00,
2013-01-11 00:02:00,25.9,18.1,30.44,NNE,22,0.0,0.0,72,0.00,,---,0.00,VWS V14.00,2013-01-11 05:02:00,
2013-01-11 00:03:00,25.7,17.9,30.44,NNE,22,0.0,0.0,72,0.00,,---,0.00,VWS V14.00,2013-01-11 05:03:00,
2013-01-11 00:08:00,25.7,17.9,30.44,West,270,1.6,2.5,72,0.00,,---,0.00,VWS V14.00,2013-01-11 05:08:00,
2013-01-11 00:13:00,25.7,17.9,30.44,West,270,0.0,0.0,72,0.00,,---,0.00,VWS V14.00,2013-01-11 05:13:00,
2013-01-11 00:18:00,26.1,18.3,30.44,NNE,22,0.0,0.0,72,0.00,,---,0.00,VWS V14.00,2013-01-11 05:18:00,
2013-01-11 00:23:00,26.2,18.8,30.44,NE,45,0.0,1.6,73,0.00,,---,0.00,VWS V14.00,2013-01-11 05:23:00,
2013-01-11 00:28:00,26.1,18.6,30.44,NE,45,0.0,0.0,73,0.00,,---,0.00,VWS V14.00,2013-01-11 05:28:00,
2013-01-11 00:33:00,25.9,18.1,30.44,ENE,68,0.0,0.0,72,0.00,,---,0.00,VWS V14.00,2013-01-11 05:33:00,
2013-01-11 00:38:00,25.7,18.3,30.44,South,180,0.0,0.0,73,0.00,,---,0.00,VWS V14.00,2013-01-11 05:38:00,
2013-01-11 00:43:00,25.5,17.8,30.44,East,90,2.2,2.2,72,0.00,,---,0.00,VWS V14.00,2013-01-11 05:43:00,
2013-01-11 00:48:00,25.3,17.9,30.44,East,90,0.0,0.0,73,0.00,,---,0.00,VWS V14.00,2013-01-11 05:48:00,
2013-01-11 00:53:00,25.5,18.1,30.44,WNW,292,1.3,2.5,73,0.00,,---,0.00,VWS V14.00,2013-01-11 05:53:00,
2013-01-11 00:58:00,25.7,18.6,30.44,NNE,22,0.0,0.0,74,0.00,,---,0.00,VWS V14.00,2013-01-11 05:58:00,
2013-01-11 01:03:00,25.9,18.8,30.44,NNE,22,0.0,0.0,74,0.00,,---,0.00,VWS V14.00,2013-01-11 06:03:00,
2013-01-11 01:08:00,25.9,18.8,30.44,NNE,22,0.0,0.0,74,0.00,,---,0.00,VWS V14.00,2013-01-11 06:08:00,
2013-01-11 01:13:00,25.7,18.3,30.44,NNE,22,0.0,0.0,73,0.00,,---,0.00,VWS V14.00,2013-01-11 06:13:00,
2013-01-11 01:18:00,25.7,18.3,30.44,NNE,22,0.0,0.0,73,0.00,,---,0.00,VWS V14.00,2013-01-11 06:18:00,
2013-01-11 01:23:00,25.5,18.1,30.44,NE,45,0.0,0.0,73,0.00,,---,0.00,VWS V14.00,2013-01-11 06:23:00,
2013-01-11 01:28:00,25.5,18.1,30.44,NE,45,0.0,0.0,73,0.00,,---,0.00,VWS V14.00,2013-01-11 06:28:00,
2013-01-11 01:33:00,25.5,18.4,30.44,WSW,248,0.0,0.0,74,0.00,,---,0.00,VWS V14.00,2013-01-11 06:33:00,
2013-01-11 01:38:00,25.5,18.4,30.44,West,270,0.0,0.0,74,0.00,,---,0.00,VWS V14.00,2013-01-11 06:38:00,
2013-01-11 01:43:00,25.7,18.6,30.44,West,270,0.0,0.0,74,0.00,,---,0.00,VWS V14.00,2013-01-11 06:43:00,
2013-01-11 01:48:00,25.7,18.6,30.44,West,270,0.0,0.0,74,0.00,,---,0.00,VWS V14.00,2013-01-11 06:48:00,
2013-01-11 01:53:00,25.7,18.6,30.44,West,270,0.0,0.0,74,0.00,,---,0.00,VWS V14.00,2013-01-11 06:53:00,
2013-01-11 01:58:00,25.7,18.6,30.44,West,270,0.0,0.0,74,0.00,,---,0.00,VWS V14.00,2013-01-11 06:58:00,
2013-01-11 02:03:00,26.1,18.9,30.44,West,270,0.0,0.0,74,0.00,,---,0.00,VWS V14.00,2013-01-11 07:03:00,
2013-01-11 02:08:00,25.5,18.1,30.44,WSW,248,0.0,0.0,73,0.00,,---,0.00,VWS V14.00,2013-01-11 07:08:00,
2013-01-11 02:13:00,25.3,18.2,30.44,WSW,248,0.0,0.0,74,0.00,,---,0.00,VWS V14.00,2013-01-11 07:13:00,
2013-01-11 02:18:00,25.2,18.0,30.44,WSW,248,0.0,0.0,74,0.00,,---,0.00,VWS V14.00,2013-01-11 07:18:00,
2013-01-11 02:23:00,24.8,17.7,30.44,WSW,248,0.0,0.0,74,0.00,,---,0.00,VWS V14.00,2013-01-11 07:23:00,
2013-01-11 02:28:00,24.8,17.7,30.44,North,0,0.0,0.0,74,0.00,,---,0.00,VWS V14.00,2013-01-11 07:28:00,
2013-01-11 02:33:00,24.6,17.5,30.44,North,0,0.0,0.0,74,0.00,,---,0.00,VWS V14.00,2013-01-11 07:33:00,
2013-01-11 02:38:00,24.8,18.0,30.44,NE,45,1.3,1.3,75,0.00,,---,0.00,VWS V14.00,2013-01-11 07:38:00,
2013-01-11 02:43:00,24.6,17.8,30.44,NE,45,0.0,0.0,75,0.00,,---,0.00,VWS V14.00,2013-01-11 07:43:00,
2013-01-11 02:48:00,24.4,17.7,30.44,NE,45,0.0,0.0,75,0.00,,---,0.00,VWS V14.00,2013-01-11 07:48:00,
2013-01-11 02:53:00,24.3,17.8,30.44,NE,45,0.0,0.0,76,0.00,,---,0.00,VWS V14.00,2013-01-11 07:53:00,
2013-01-11 02:58:00,24.3,17.8,30.44,NE,45,0.0,0.0,76,0.00,,---,0.00,VWS V14.00,2013-01-11 07:58:00,
2013-01-11 03:03:00,23.9,17.5,30.44,NE,45,0.0,0.0,76,0.00,,---,0.00,VWS V14.00,2013-01-11 08:03:00,
2013-01-11 03:08:00,23.7,17.3,30.41,NE,45,0.0,0.0,76,0.00,,---,0.00,VWS V14.00,2013-01-11 08:08:00,
2013-01-11 03:13:00,23.5,17.4,30.41,NE,45,0.0,0.0,77,0.00,,---,0.00,VWS V14.00,2013-01-11 08:13:00,
2013-01-11 03:18:00,23.4,17.2,30.41,NE,45,0.0,0.0,77,0.00,,---,0.00,VWS V14.00,2013-01-11 08:18:00,
2013-01-11 03:23:00,23.4,17.2,30.41,NE,45,0.0,0.0,77,0.00,,---,0.00,VWS V14.00,2013-01-11 08:23:00,
2013-01-11 03:28:00,23.5,17.4,30.41,NE,45,0.0,0.0,77,0.00,,---,0.00,VWS V14.00,2013-01-11 08:28:00,
2013-01-11 03:33:00,23.2,17.0,30.41,NE,45,0.0,0.0,77,0.00,,---,0.00,VWS V14.00,2013-01-11 08:33:00,
2013-01-11 03:38:00,23.2,17.0,30.41,NE,45,0.0,0.0,77,0.00,,---,0.00,VWS V14.00,2013-01-11 08:38:00,
2013-01-11 03:43:00,23.2,17.0,30.41,NE,45,0.0,0.0,77,0.00,,---,0.00,VWS V14.00,2013-01-11 08:43:00,
2013-01-11 03:48:00,23.0,17.2,30.41,NE,45,0.0,0.0,78,0.00,,---,0.00,VWS V14.00,2013-01-11 08:48:00,
2013-01-11 03:53:00,23.2,17.4,30.41,NE,45,0.0,0.0,78,0.00,,---,0.00,VWS V14.00,2013-01-11 08:53:00,
2013-01-11 03:58:00,23.0,17.2,30.41,NE,45,0.0,0.0,78,0.00,,---,0.00,VWS V14.00,2013-01-11 08:58:00,
2013-01-11 04:03:00,23.0,17.2,30.41,NE,45,0.0,0.0,78,0.00,,---,0.00,VWS V14.00,2013-01-11 09:03:00,
2013-01-11 04:08:00,23.0,17.2,30.39,NE,45,0.0,0.0,78,0.00,,---,0.00,VWS V14.00,2013-01-11 09:08:00,
2013-01-11 04:13:00,23.0,17.5,30.39,NNW,338,0.0,0.0,79,0.00,,---,0.00,VWS V14.00,2013-01-11 09:13:00,
2013-01-11 04:18:00,23.0,17.5,30.39,NNW,338,0.0,0.0,79,0.00,,---,0.00,VWS V14.00,2013-01-11 09:18:00,
2013-01-11 04:23:00,22.8,17.3,30.39,NNW,338,0.0,0.0,79,0.00,,---,0.00,VWS V14.00,2013-01-11 09:23:00,
2013-01-11 04:28:00,23.0,17.5,30.39,NNW,338,0.0,0.0,79,0.00,,---,0.00,VWS V14.00,2013-01-11 09:28:00,
2013-01-11 04:33:00,23.2,17.6,30.39,NNW,338,0.0,0.0,79,0.00,,---,0.00,VWS V14.00,2013-01-11 09:33:00,
2013-01-11 04:38:00,23.0,17.5,30.39,NNW,338,0.0,0.0,79,0.00,,---,0.00,VWS V14.00,2013-01-11 09:38:00,
2013-01-11 04:43:00,23.2,17.6,30.39,NNW,338,0.0,0.0,79,0.00,,---,0.00,VWS V14.00,2013-01-11 09:43:00,
2013-01-11 04:48:00,23.4,17.8,30.39,NNW,338,0.0,0.0,79,0.00,,---,0.00,VWS V14.00,2013-01-11 09:48:00,
2013-01-11 04:53:00,23.2,17.6,30.39,NNW,338,0.0,0.0,79,0.00,,---,0.00,VWS V14.00,2013-01-11 09:53:00,
2013-01-11 04:58:00,23.2,17.6,30.39,NNW,338,0.0,0.0,79,0.00,,---,0.00,VWS V14.00,2013-01-11 09:58:00,
2013-01-11 05:03:00,23.0,17.8,30.39,NNW,338,0.0,0.0,80,0.00,,---,0.00,VWS V14.00,2013-01-11 10:03:00,
2013-01-11 05:08:00,22.8,17.6,30.39,NNW,338,0.0,0.0,80,0.00,,---,0.00,VWS V14.00,2013-01-11 10:08:00,
2013-01-11 05:13:00,23.0,17.8,30.39,NNW,338,0.0,0.0,80,0.00,,---,0.00,VWS V14.00,2013-01-11 10:13:00,
2013-01-11 05:18:00,23.2,17.9,30.39,NNW,338,0.0,0.0,80,0.00,,---,0.00,VWS V14.00,2013-01-11 10:18:00,
2013-01-11 05:23:00,23.2,17.9,30.39,NNW,338,0.0,0.0,80,0.00,,---,0.00,VWS V14.00,2013-01-11 10:23:00,
2013-01-11 05:28:00,23.5,18.3,30.39,NNW,338,0.0,0.0,80,0.00,,---,0.00,VWS V14.00,2013-01-11 10:28:00,
2013-01-11 05:33:00,23.5,18.3,30.39,NNW,338,0.0,0.0,80,0.00,,---,0.00,VWS V14.00,2013-01-11 10:33:00,
2013-01-11 05:38:00,23.5,18.3,30.39,NNW,338,0.0,0.0,80,0.00,,---,0.00,VWS V14.00,2013-01-11 10:38:00,
2013-01-11 05:43:00,23.5,18.3,30.39,NNW,338,0.0,0.0,80,0.00,,---,0.00,VWS V14.00,2013-01-11 10:43:00,
2013-01-11 05:48:00,23.5,18.3,30.39,NNW,338,0.0,0.0,80,0.00,,---,0.00,VWS V14.00,2013-01-11 10:48:00,
2013-01-11 05:53:00,23.5,18.3,30.39,NNW,338,0.0,0.0,80,0.00,,---,0.00,VWS V14.00,2013-01-11 10:53:00,
2013-01-11 05:58:00,23.9,18.9,30.39,NNW,338,0.0,0.0,81,0.00,,---,0.00,VWS V14.00,2013-01-11 10:58:00,
2013-01-11 06:03:00,23.9,18.9,30.39,NNW,338,0.0,0.0,81,0.00,,---,0.00,VWS V14.00,2013-01-11 11:03:00,
2013-01-11 06:08:00,23.9,18.6,30.39,NNW,338,0.0,0.0,80,0.00,,---,0.00,VWS V14.00,2013-01-11 11:08:00,
2013-01-11 06:13:00,24.1,18.8,30.39,NNW,338,0.0,0.0,80,0.00,,---,0.00,VWS V14.00,2013-01-11 11:13:00,
2013-01-11 06:18:00,24.6,19.3,30.39,NNW,338,0.0,0.0,80,0.00,,---,0.00,VWS V14.00,2013-01-11 11:18:00,
2013-01-11 06:23:00,24.8,19.5,30.39,NNW,338,0.0,0.0,80,0.00,,---,0.00,VWS V14.00,2013-01-11 11:23:00,
2013-01-11 06:28:00,24.8,19.5,30.39,NNW,338,0.0,0.0,80,0.00,,---,0.00,VWS V14.00,2013-01-11 11:28:00,
2013-01-11 06:33:00,25.0,19.7,30.39,NNW,338,0.0,0.0,80,0.00,,---,0.00,VWS V14.00,2013-01-11 11:33:00,
2013-01-11 06:38:00,25.0,19.7,30.39,NNW,338,0.0,0.0,80,0.00,,---,0.00,VWS V14.00,2013-01-11 11:38:00,
2013-01-11 06:43:00,25.2,19.9,30.39,NNW,338,0.0,0.0,80,0.00,,---,0.00,VWS V14.00,2013-01-11 11:43:00,
2013-01-11 06:48:00,25.2,19.9,30.39,NNW,338,0.0,0.0,80,0.00,,---,0.00,VWS V14.00,2013-01-11 11:48:00,
2013-01-11 06:53:00,25.3,20.0,30.39,NNW,338,0.0,0.0,80,0.00,,---,0.00,VWS V14.00,2013-01-11 11:53:00,
2013-01-11 06:58:00,25.9,20.6,30.39,North,0,0.0,0.0,80,0.00,,---,0.00,VWS V14.00,2013-01-11 11:58:00,
2013-01-11 07:03:00,26.1,20.8,30.39,North,0,0.0,0.0,80,0.00,,---,0.00,VWS V14.00,2013-01-11 12:03:00,
2013-01-11 07:08:00,26.1,20.8,30.39,North,0,0.0,0.0,80,0.00,,---,0.00,VWS V14.00,2013-01-11 12:08:00,
2013-01-11 07:13:00,26.1,20.8,30.39,North,0,0.0,0.0,80,0.00,,---,0.00,VWS V14.00,2013-01-11 12:13:00,
2013-01-11 07:18:00,26.1,20.8,30.39,North,0,0.0,0.0,80,0.00,,---,0.00,VWS V14.00,2013-01-11 12:18:00,
2013-01-11 07:23:00,26.1,20.8,30.39,North,0,0.0,0.0,80,0.00,,---,0.00,VWS V14.00,2013-01-11 12:23:00,
2013-01-11 07:28:00,26.1,20.8,30.39,North,0,0.0,0.0,80,0.00,,---,0.00,VWS V14.00,2013-01-11 12:28:00,
2013-01-11 07:33:00,26.4,21.1,30.39,North,0,0.0,0.0,80,0.00,,---,0.00,VWS V14.00,2013-01-11 12:33:00,
2013-01-11 07:38:00,26.6,21.3,30.39,North,0,0.0,0.0,80,0.00,,---,0.00,VWS V14.00,2013-01-11 12:38:00,
2013-01-11 07:43:00,26.8,21.5,30.39,North,0,0.0,0.0,80,0.00,,---,0.00,VWS V14.00,2013-01-11 12:43:00,
2013-01-11 07:48:00,27.0,21.6,30.39,North,0,0.0,0.0,80,0.00,,---,0.00,VWS V14.00,2013-01-11 12:48:00,
2013-01-11 07:53:00,27.1,21.8,30.39,North,0,0.0,0.0,80,0.00,,---,0.00,VWS V14.00,2013-01-11 12:53:00,
2013-01-11 07:58:00,27.5,22.1,30.39,North,0,0.0,0.0,80,0.00,,---,0.00,VWS V14.00,2013-01-11 12:58:00,
2013-01-11 08:03:00,27.9,22.5,30.39,North,0,0.0,0.0,80,0.00,,---,0.00,VWS V14.00,2013-01-11 13:03:00,
2013-01-11 08:08:00,28.0,22.4,30.39,NNE,22,0.0,0.0,79,0.00,,---,0.00,VWS V14.00,2013-01-11 13:08:00,
2013-01-11 08:13:00,28.2,22.6,30.39,NNE,22,0.0,0.0,79,0.00,,---,0.00,VWS V14.00,2013-01-11 13:13:00,
2013-01-11 08:18:00,28.4,22.7,30.39,NNE,22,0.0,0.0,79,0.00,,---,0.00,VWS V14.00,2013-01-11 13:18:00,
2013-01-11 08:23:00,28.6,22.6,30.39,NNE,22,0.0,0.0,78,0.00,,---,0.00,VWS V14.00,2013-01-11 13:23:00,
2013-01-11 08:28:00,28.9,23.0,30.39,NNE,22,0.0,0.0,78,0.00,,---,0.00,VWS V14.00,2013-01-11 13:28:00,
2013-01-11 08:33:00,29.3,23.3,30.39,NNE,22,0.0,0.0,78,0.00,,---,0.00,VWS V14.00,2013-01-11 13:33:00,
2013-01-11 08:38:00,29.8,23.5,30.39,NNE,22,0.0,0.0,77,0.00,,---,0.00,VWS V14.00,2013-01-11 13:38:00,
2013-01-11 08:43:00,30.2,23.9,30.39,NNE,22,0.0,0.0,77,0.00,,---,0.00,VWS V14.00,2013-01-11 13:43:00,
2013-01-11 08:48:00,30.9,23.9,30.39,NNE,22,0.0,0.0,75,0.00,,---,0.00,VWS V14.00,2013-01-11 13:48:00,
2013-01-11 08:53:00,31.6,24.6,30.39,NNE,22,0.0,0.0,75,0.00,,---,0.00,VWS V14.00,2013-01-11 13:53:00,
2013-01-11 08:58:00,32.4,25.0,30.39,NNE,22,0.0,0.0,74,0.00,,---,0.00,VWS V14.00,2013-01-11 13:58:00,
2013-01-11 09:03:00,32.9,25.2,30.39,NNE,22,0.0,0.0,73,0.00,,---,0.00,VWS V14.00,2013-01-11 14:03:00,
2013-01-11 09:08:00,33.4,25.1,30.39,NNE,22,0.0,0.0,71,0.00,,---,0.00,VWS V14.00,2013-01-11 14:08:00,
2013-01-11 09:13:00,33.8,24.7,30.39,NNE,22,0.0,0.0,69,0.00,,---,0.00,VWS V14.00,2013-01-11 14:13:00,
2013-01-11 09:18:00,34.3,24.9,30.39,NNE,22,0.0,0.0,68,0.00,,---,0.00,VWS V14.00,2013-01-11 14:18:00,
2013-01-11 09:23:00,34.5,24.7,30.39,NNE,22,0.0,0.0,67,0.00,,---,0.00,VWS V14.00,2013-01-11 14:23:00,
2013-01-11 09:28:00,35.1,24.9,30.39,NNE,22,0.0,0.0,66,0.00,,---,0.00,VWS V14.00,2013-01-11 14:28:00,
2013-01-11 09:33:00,35.6,25.0,30.39,NNE,22,0.0,0.0,65,0.00,,---,0.00,VWS V14.00,2013-01-11 14:33:00,
2013-01-11 09:38:00,36.0,25.0,30.39,NNE,22,0.0,0.0,64,0.00,,---,0.00,VWS V14.00,2013-01-11 14:38:00,
2013-01-11 09:43:00,35.8,25.2,30.39,NNE,22,0.0,0.0,65,0.00,,---,0.00,VWS V14.00,2013-01-11 14:43:00,
2013-01-11 09:48:00,36.0,24.6,30.39,East,90,0.0,2.2,63,0.00,,---,0.00,VWS V14.00,2013-01-11 14:48:00,
2013-01-11 09:53:00,36.1,24.4,30.36,East,90,0.9,0.9,62,0.00,,---,0.00,VWS V14.00,2013-01-11 14:53:00,
2013-01-11 09:58:00,36.9,25.1,30.36,East,90,0.9,1.6,62,0.00,,---,0.00,VWS V14.00,2013-01-11 14:58:00,
2013-01-11 10:03:00,37.0,24.9,30.36,East,90,0.0,0.0,61,0.00,,---,0.00,VWS V14.00,2013-01-11 15:03:00,
2013-01-11 10:08:00,37.6,24.6,30.36,East,90,2.7,2.7,59,0.00,,---,0.00,VWS V14.00,2013-01-11 15:08:00,
2013-01-11 10:13:00,37.8,24.3,30.36,East,90,0.0,0.0,58,0.00,,---,0.00,VWS V14.00,2013-01-11 15:13:00,
2013-01-11 10:18:00,37.8,23.1,30.36,East,90,3.4,4.5,55,0.00,,---,0.00,VWS V14.00,2013-01-11 15:18:00,
2013-01-11 10:23:00,37.9,23.7,30.36,ESE,112,2.5,2.5,56,0.00,,---,0.00,VWS V14.00,2013-01-11 15:23:00,
2013-01-11 10:28:00,37.9,23.2,30.36,SE,135,2.7,2.7,55,0.00,,---,0.00,VWS V14.00,2013-01-11 15:28:00,
2013-01-11 10:32:00,38.1,23.4,30.36,ESE,112,2.7,4.3,55,0.00,,---,0.00,VWS V14.00,2013-01-11 15:32:00,
2013-01-11 10:37:00,38.3,23.6,30.36,ENE,68,2.5,3.1,55,0.00,,---,0.00,VWS V14.00,2013-01-11 15:37:00,
2013-01-11 10:42:00,37.9,22.8,30.36,ESE,112,3.6,3.6,54,0.00,,---,0.00,VWS V14.00,2013-01-11 15:42:00,
2013-01-11 10:47:00,37.9,22.8,30.36,ESE,112,3.6,3.6,54,0.00,,---,0.00,VWS V14.00,2013-01-11 15:47:00,
2013-01-11 10:52:00,37.8,22.6,30.36,ESE,112,4.0,4.3,54,0.00,,---,0.00,VWS V14.00,2013-01-11 15:52:00,
2013-01-11 10:57:00,37.6,22.9,30.36,SE,135,2.7,2.9,55,0.00,,---,0.00,VWS V14.00,2013-01-11 15:57:00,
2013-01-11 11:02:00,37.4,22.7,30.36,ESE,112,2.5,3.4,55,0.00,,---,0.00,VWS V14.00,2013-01-11 16:02:00,
2013-01-11 11:07:00,37.4,22.7,30.33,ENE,68,3.6,3.6,55,0.00,,---,0.00,VWS V14.00,2013-01-11 16:07:00,
2013-01-11 11:12:00,37.4,23.1,30.33,East,90,0.9,0.9,56,0.00,,---,0.00,VWS V14.00,2013-01-11 16:12:00,
2013-01-11 11:17:00,37.4,23.1,30.33,East,90,0.0,0.0,56,0.00,,---,0.00,VWS V14.00,2013-01-11 16:17:00,
2013-01-11 11:22:00,37.4,23.1,30.36,South,180,1.3,2.5,56,0.00,,---,0.00,VWS V14.00,2013-01-11 16:22:00,
2013-01-11 11:27:00,36.9,22.6,30.36,ESE,112,0.0,3.4,56,0.00,,---,0.00,VWS V14.00,2013-01-11 16:27:00,
2013-01-11 11:32:00,36.9,22.6,30.36,ESE,112,0.0,2.2,56,0.00,,---,0.00,VWS V14.00,2013-01-11 16:32:00,
2013-01-11 11:37:00,36.9,22.6,30.33,SE,135,0.0,1.3,56,0.00,,---,0.00,VWS V14.00,2013-01-11 16:37:00,
2013-01-11 11:42:00,37.2,23.4,30.33,NE,45,2.9,2.9,57,0.00,,---,0.00,VWS V14.00,2013-01-11 16:42:00,
2013-01-11 11:47:00,37.6,23.3,30.33,ESE,112,2.5,3.4,56,0.00,,---,0.00,VWS V14.00,2013-01-11 16:47:00,
2013-01-11 11:52:00,37.9,23.2,30.33,ESE,112,2.0,2.5,55,0.00,,---,0.00,VWS V14.00,2013-01-11 16:52:00,
2013-01-11 11:57:00,37.9,23.2,30.33,East,90,3.8,4.7,55,0.00,,---,0.00,VWS V14.00,2013-01-11 16:57:00,
2013-01-11 12:02:00,37.9,23.7,30.33,SSE,158,2.9,2.9,56,0.00,,---,0.00,VWS V14.00,2013-01-11 17:02:00,
2013-01-11 12:07:00,38.3,23.6,30.30,SE,135,2.9,3.4,55,0.00,,---,0.00,VWS V14.00,2013-01-11 17:07:00,
2013-01-11 12:12:00,38.5,23.7,30.30,East,90,2.2,2.7,55,0.00,,---,0.00,VWS V14.00,2013-01-11 17:12:00,
2013-01-11 12:17:00,38.1,23.4,30.30,ENE,68,1.6,2.0,55,0.00,,---,0.00,VWS V14.00,2013-01-11 17:17:00,
2013-01-11 12:22:00,37.9,23.2,30.30,SE,135,3.4,4.7,55,0.00,,---,0.00,VWS V14.00,2013-01-11 17:22:00,
2013-01-11 12:27:00,37.8,23.1,30.30,ESE,112,3.4,3.4,55,0.00,,---,0.00,VWS V14.00,2013-01-11 17:27:00,
2013-01-11 12:32:00,37.4,22.7,30.30,East,90,2.5,4.7,55,0.00,,---,0.00,VWS V14.00,2013-01-11 17:32:00,
2013-01-11 12:37:00,37.4,23.1,30.30,ENE,68,2.7,2.7,56,0.00,,---,0.00,VWS V14.00,2013-01-11 17:37:00,
2013-01-11 12:42:00,37.2,23.4,30.30,ESE,112,1.3,2.7,57,0.00,,---,0.00,VWS V14.00,2013-01-11 17:42:00,
2013-01-11 12:47:00,37.4,23.6,30.30,ESE,112,3.6,3.6,57,0.00,,---,0.00,VWS V14.00,2013-01-11 17:47:00,
2013-01-11 12:52:00,37.4,23.6,30.30,ENE,68,0.0,0.0,57,0.00,,---,0.00,VWS V14.00,2013-01-11 17:52:00,
2013-01-11 12:57:00,37.8,23.9,30.30,ENE,68,1.1,2.0,57,0.00,,---,0.00,VWS V14.00,2013-01-11 17:57:00,
2013-01-11 13:02:00,37.8,23.9,30.30,SSE,158,0.9,0.9,57,0.00,,---,0.00,VWS V14.00,2013-01-11 18:02:00,
2013-01-11 13:07:00,37.8,23.9,30.27,ESE,112,1.6,1.6,57,0.00,,---,0.00,VWS V14.00,2013-01-11 18:07:00,
2013-01-11 13:12:00,37.8,23.9,30.27,ESE,112,2.5,3.1,57,0.00,,---,0.00,VWS V14.00,2013-01-11 18:12:00,
2013-01-11 13:17:00,37.8,23.9,30.27,NE,45,1.6,2.7,57,0.00,,---,0.00,VWS V14.00,2013-01-11 18:17:00,
2013-01-11 13:22:00,37.4,24.4,30.27,ENE,68,2.9,4.0,59,0.00,,---,0.00,VWS V14.00,2013-01-11 18:22:00,
2013-01-11 13:27:00,37.4,24.4,30.27,ESE,112,1.3,1.6,59,0.00,,---,0.00,VWS V14.00,2013-01-11 18:27:00,
2013-01-11 13:32:00,37.9,24.9,30.27,SE,135,2.2,2.2,59,0.00,,---,0.00,VWS V14.00,2013-01-11 18:32:00,
2013-01-11 13:37:00,37.9,24.9,30.27,ENE,68,2.7,2.7,59,0.00,,---,0.00,VWS V14.00,2013-01-11 18:37:00,
2013-01-11 13:42:00,37.8,25.1,30.27,East,90,2.0,2.0,60,0.00,,---,0.00,VWS V14.00,2013-01-11 18:42:00,
2013-01-11 13:47:00,37.8,25.1,30.27,ESE,112,3.6,3.6,60,0.00,,---,0.00,VWS V14.00,2013-01-11 18:47:00,
2013-01-11 13:52:00,37.9,25.3,30.27,ESE,112,3.1,3.6,60,0.00,,---,0.00,VWS V14.00,2013-01-11 18:52:00,
2013-01-11 13:57:00,37.8,25.5,30.27,ESE,112,3.4,3.4,61,0.00,,---,0.00,VWS V14.00,2013-01-11 18:57:00,
2013-01-11 14:02:00,37.6,25.4,30.27,ESE,112,2.5,2.9,61,0.00,,---,0.00,VWS V14.00,2013-01-11 19:02:00,
2013-01-11 14:07:00,37.4,25.6,30.27,East,90,2.5,2.5,62,0.00,,---,0.00,VWS V14.00,2013-01-11 19:07:00,
2013-01-11 14:12:00,37.0,25.6,30.24,ESE,112,1.6,2.5,63,0.00,,---,0.00,VWS V14.00,2013-01-11 19:12:00,
2013-01-11 14:17:00,37.0,26.0,30.24,SE,135,1.1,1.1,64,0.00,,---,0.00,VWS V14.00,2013-01-11 19:17:00,
2013-01-11 14:22:00,36.9,26.2,30.24,East,90,0.0,1.3,65,0.00,,---,0.00,VWS V14.00,2013-01-11 19:22:00,
2013-01-11 14:27:00,36.9,26.2,30.24,ESE,112,3.8,3.8,65,0.00,,---,0.00,VWS V14.00,2013-01-11 19:27:00,
2013-01-11 14:32:00,36.9,26.6,30.24,East,90,2.7,2.7,66,0.00,,---,0.00,VWS V14.00,2013-01-11 19:32:00,
2013-01-11 14:37:00,37.0,27.1,30.24,East,90,2.5,2.7,67,0.00,,---,0.00,VWS V14.00,2013-01-11 19:37:00,
2013-01-11 14:42:00,37.0,27.1,30.24,ESE,112,1.6,1.6,67,0.00,,---,0.00,VWS V14.00,2013-01-11 19:42:00,
2013-01-11 14:47:00,37.2,27.3,30.24,East,90,1.3,1.3,67,0.00,,---,0.00,VWS V14.00,2013-01-11 19:47:00,
2013-01-11 14:52:00,37.2,27.6,30.24,ENE,68,2.2,2.5,68,0.00,,---,0.00,VWS V14.00,2013-01-11 19:52:00,
2013-01-11 14:57:00,37.2,27.3,30.24,ESE,112,1.3,1.6,67,0.00,,---,0.00,VWS V14.00,2013-01-11 19:57:00,
2013-01-11 15:02:00,37.0,27.5,30.24,ESE,112,1.3,2.7,68,0.00,,---,0.00,VWS V14.00,2013-01-11 20:02:00,
2013-01-11 15:07:00,37.0,27.8,30.24,ESE,112,2.5,3.4,69,0.00,,---,0.00,VWS V14.00,2013-01-11 20:07:00,
2013-01-11 15:12:00,37.0,27.8,30.24,East,90,0.0,1.3,69,0.00,,---,0.00,VWS V14.00,2013-01-11 20:12:00,
2013-01-11 15:17:00,36.9,27.7,30.24,SE,135,2.5,2.5,69,0.00,,---,0.00,VWS V14.00,2013-01-11 20:17:00,
2013-01-11 15:22:00,36.9,28.0,30.24,ENE,68,1.3,1.3,70,0.00,,---,0.00,VWS V14.00,2013-01-11 20:22:00,
2013-01-11 15:27:00,36.9,28.4,30.24,East,90,2.5,2.9,71,0.00,,---,0.00,VWS V14.00,2013-01-11 20:27:00,
2013-01-11 15:32:00,36.9,28.4,30.24,ESE,112,2.0,2.2,71,0.00,,---,0.00,VWS V14.00,2013-01-11 20:32:00,
2013-01-11 15:37:00,37.0,28.5,30.24,East,90,2.0,2.5,71,0.00,,---,0.00,VWS V14.00,2013-01-11 20:37:00,
2013-01-11 15:42:00,37.0,28.9,30.24,ESE,112,2.0,2.5,72,0.00,,---,0.00,VWS V14.00,2013-01-11 20:42:00,
2013-01-11 15:47:00,36.9,29.0,30.24,NE,45,0.0,0.0,73,0.00,,---,0.00,VWS V14.00,2013-01-11 20:47:00,
2013-01-11 15:52:00,36.7,28.9,30.24,ENE,68,1.6,1.6,73,0.00,,---,0.00,VWS V14.00,2013-01-11 20:52:00,
2013-01-11 15:57:00,36.7,28.9,30.21,ESE,112,1.1,1.6,73,0.00,,---,0.00,VWS V14.00,2013-01-11 20:57:00,
2013-01-11 16:02:00,36.3,28.8,30.21,ENE,68,1.6,2.0,74,0.00,,---,0.00,VWS V14.00,2013-01-11 21:02:00,
2013-01-11 16:07:00,36.1,29.0,30.21,East,90,1.1,1.3,75,0.00,,---,0.00,VWS V14.00,2013-01-11 21:07:00,
2013-01-11 16:12:00,36.0,29.1,30.21,ENE,68,0.9,0.9,76,0.00,,---,0.00,VWS V14.00,2013-01-11 21:12:00,
2013-01-11 16:17:00,35.8,29.6,30.21,East,90,1.1,1.3,78,0.00,,---,0.00,VWS V14.00,2013-01-11 21:17:00,
2013-01-11 16:22:00,35.4,30.5,30.21,East,90,2.2,2.5,82,0.00,,---,0.00,VWS V14.00,2013-01-11 21:22:00,
2013-01-11 16:27:00,35.2,30.9,30.21,ESE,112,1.3,2.0,84,0.00,,---,0.00,VWS V14.00,2013-01-11 21:27:00,
2013-01-11 16:32:00,34.9,30.5,30.21,ESE,112,0.0,0.9,84,0.00,,---,0.00,VWS V14.00,2013-01-11 21:32:00,
2013-01-11 16:37:00,34.9,30.2,30.21,ESE,112,0.0,0.0,83,0.00,,---,0.00,VWS V14.00,2013-01-11 21:37:00,
2013-01-11 16:42:00,34.7,30.1,30.21,ESE,112,0.0,0.0,83,0.00,,---,0.00,VWS V14.00,2013-01-11 21:42:00,
2013-01-11 16:47:00,34.5,29.9,30.21,ESE,112,1.3,1.3,83,0.04,,---,0.04,VWS V14.00,2013-01-11 21:47:00,
2013-01-11 16:52:00,34.3,29.7,30.21,ESE,112,0.0,0.0,83,0.04,,---,0.04,VWS V14.00,2013-01-11 21:52:00,
2013-01-11 16:57:00,34.3,30.3,30.21,ESE,112,0.0,0.0,85,0.04,,---,0.04,VWS V14.00,2013-01-11 21:57:00,
2013-01-11 17:02:00,34.3,30.3,30.21,ESE,112,0.0,0.0,85,0.04,,---,0.04,VWS V14.00,2013-01-11 22:02:00,
2013-01-11 17:07:00,34.2,30.4,30.21,ESE,112,0.0,0.0,86,0.04,,---,0.04,VWS V14.00,2013-01-11 22:07:00,
2013-01-11 17:12:00,34.2,30.4,30.21,ESE,112,0.0,0.0,86,0.00,,---,0.04,VWS V14.00,2013-01-11 22:12:00,
2013-01-11 17:17:00,34.2,31.3,30.21,East,90,2.5,2.5,89,0.00,,---,0.04,VWS V14.00,2013-01-11 22:17:00,
2013-01-11 17:22:00,34.2,31.5,30.21,East,90,0.0,0.0,90,0.00,,---,0.04,VWS V14.00,2013-01-11 22:22:00,
2013-01-11 17:27:00,34.2,31.5,30.21,East,90,0.0,0.0,90,0.00,,---,0.04,VWS V14.00,2013-01-11 22:27:00,
2013-01-11 17:32:00,34.2,31.5,30.21,SE,135,2.5,3.1,90,0.00,,---,0.04,VWS V14.00,2013-01-11 22:32:00,
2013-01-11 17:37:00,34.2,31.5,30.21,SE,135,0.0,0.9,90,0.00,,---,0.04,VWS V14.00,2013-01-11 22:37:00,
2013-01-11 17:42:00,34.3,31.7,30.21,SE,135,0.0,0.0,90,0.00,,---,0.04,VWS V14.00,2013-01-11 22:42:00,
2013-01-11 17:47:00,34.3,32.0,30.21,ESE,112,2.0,2.2,91,0.00,,---,0.04,VWS V14.00,2013-01-11 22:47:00,
2013-01-11 17:52:00,34.3,32.3,30.21,ENE,68,0.0,0.9,92,0.00,,---,0.04,VWS V14.00,2013-01-11 22:52:00,
2013-01-11 17:57:00,34.5,32.7,30.21,East,90,2.9,3.4,93,0.00,,---,0.04,VWS V14.00,2013-01-11 22:57:00,
2013-01-11 18:02:00,34.5,32.7,30.21,SE,135,0.0,1.1,93,0.00,,---,0.04,VWS V14.00,2013-01-11 23:02:00,
2013-01-11 18:07:00,34.5,32.7,30.21,NE,45,2.7,2.7,93,0.00,,---,0.04,VWS V14.00,2013-01-11 23:07:00,
2013-01-11 18:12:00,34.5,33.0,30.21,ENE,68,0.0,2.0,94,0.00,,---,0.04,VWS V14.00,2013-01-11 23:12:00,
2013-01-11 18:17:00,34.7,33.4,30.21,ESE,112,1.1,2.0,95,0.00,,---,0.04,VWS V14.00,2013-01-11 23:17:00,
2013-01-11 18:22:00,34.7,33.4,30.21,NNE,22,1.1,1.1,95,0.00,,---,0.04,VWS V14.00,2013-01-11 23:22:00,
2013-01-11 18:27:00,34.9,33.6,30.21,ESE,112,3.6,3.6,95,0.00,,---,0.04,VWS V14.00,2013-01-11 23:27:00,
2013-01-11 18:32:00,34.9,33.6,30.21,ENE,68,4.3,4.3,95,0.00,,---,0.04,VWS V14.00,2013-01-11 23:32:00,
2013-01-11 18:37:00,34.9,33.6,30.21,ESE,112,0.0,1.6,95,0.00,,---,0.04,VWS V14.00,2013-01-11 23:37:00,
2013-01-11 18:42:00,34.9,33.6,30.18,ENE,68,0.0,0.0,95,0.00,,---,0.04,VWS V14.00,2013-01-11 23:42:00,
2013-01-11 18:47:00,35.1,34.0,30.18,ENE,68,1.6,2.7,96,0.00,,---,0.04,VWS V14.00,2013-01-11 23:47:00,
2013-01-11 18:52:00,35.1,34.0,30.18,East,90,3.8,5.6,96,0.00,,---,0.04,VWS V14.00,2013-01-11 23:52:00,
2013-01-11 18:57:00,35.1,34.3,30.18,NE,45,2.7,2.9,97,0.00,,---,0.04,VWS V14.00,2013-01-11 23:57:00,
2013-01-11 19:02:00,35.1,34.3,30.18,ESE,112,1.3,2.2,97,0.00,,---,0.04,VWS V14.00,2013-01-12 00:02:00,
2013-01-11 19:07:00,35.1,34.3,30.18,ESE,112,1.1,2.5,97,0.00,,---,0.04,VWS V14.00,2013-01-12 00:07:00,
2013-01-11 19:12:00,35.1,34.3,30.18,ESE,112,0.0,1.3,97,0.00,,---,0.04,VWS V14.00,2013-01-12 00:12:00,
2013-01-11 19:17:00,35.1,34.0,30.18,ENE,68,3.1,3.1,96,0.00,,---,0.04,VWS V14.00,2013-01-12 00:17:00,
2013-01-11 19:22:00,35.1,34.3,30.18,ESE,112,0.0,1.6,97,0.00,,---,0.04,VWS V14.00,2013-01-12 00:22:00,
2013-01-11 19:27:00,34.9,34.1,30.18,ESE,112,0.0,1.3,97,0.00,,---,0.04,VWS V14.00,2013-01-12 00:27:00,
2013-01-11 19:32:00,34.9,33.9,30.18,ESE,112,2.5,2.5,96,0.00,,---,0.04,VWS V14.00,2013-01-12 00:32:00,
2013-01-11 19:37:00,34.9,33.9,30.18,East,90,1.1,1.3,96,0.00,,---,0.04,VWS V14.00,2013-01-12 00:37:00,
2013-01-11 19:42:00,35.1,34.3,30.15,ESE,112,2.7,2.7,97,0.04,,---,0.08,VWS V14.00,2013-01-12 00:42:00,
2013-01-11 19:47:00,35.1,34.3,30.15,ENE,68,1.6,2.7,97,0.04,,---,0.08,VWS V14.00,2013-01-12 00:47:00,
2013-01-11 19:52:00,35.1,34.3,30.15,East,90,2.2,2.5,97,0.04,,---,0.08,VWS V14.00,2013-01-12 00:52:00,
2013-01-11 19:57:00,35.2,34.5,30.15,ESE,112,2.2,3.1,97,0.04,,---,0.08,VWS V14.00,2013-01-12 00:57:00,
2013-01-11 20:02:00,35.2,34.5,30.15,ESE,112,2.5,2.5,97,0.04,,---,0.08,VWS V14.00,2013-01-12 01:02:00,
2013-01-11 20:07:00,35.2,34.5,30.15,ESE,112,0.0,0.9,97,0.04,,---,0.08,VWS V14.00,2013-01-12 01:07:00,
2013-01-11 20:12:00,35.2,34.5,30.15,ESE,112,0.9,1.3,97,0.00,,---,0.08,VWS V14.00,2013-01-12 01:12:00,
2013-01-11 20:17:00,35.2,34.5,30.15,East,90,0.0,1.3,97,0.00,,---,0.08,VWS V14.00,2013-01-12 01:17:00,
2013-01-11 20:22:00,35.2,34.5,30.15,ESE,112,0.0,0.0,97,0.00,,---,0.08,VWS V14.00,2013-01-12 01:22:00,
2013-01-11 20:27:00,35.4,34.7,30.15,ESE,112,1.6,2.0,97,0.00,,---,0.08,VWS V14.00,2013-01-12 01:27:00,
2013-01-11 20:32:00,35.4,34.7,30.15,ESE,112,0.0,0.9,97,0.00,,---,0.08,VWS V14.00,2013-01-12 01:32:00,
2013-01-11 20:37:00,35.6,34.8,30.15,SSE,158,0.0,0.0,97,0.00,,---,0.08,VWS V14.00,2013-01-12 01:37:00,
2013-01-11 20:42:00,35.6,34.8,30.15,ESE,112,0.0,0.0,97,0.04,,---,0.13,VWS V14.00,2013-01-12 01:42:00,
2013-01-11 20:47:00,35.6,34.8,30.15,SE,135,0.0,1.1,97,0.04,,---,0.13,VWS V14.00,2013-01-12 01:47:00,
2013-01-11 20:52:00,35.6,34.8,30.15,SE,135,0.0,0.0,97,0.04,,---,0.13,VWS V14.00,2013-01-12 01:52:00,
2013-01-11 20:57:00,35.6,34.8,30.15,SE,135,0.0,0.0,97,0.04,,---,0.13,VWS V14.00,2013-01-12 01:57:00,
2013-01-11 21:02:00,35.6,34.8,30.15,SSE,158,0.0,1.1,97,0.04,,---,0.13,VWS V14.00,2013-01-12 02:02:00,
2013-01-11 21:07:00,35.6,34.8,30.15,SE,135,0.0,2.5,97,0.04,,---,0.13,VWS V14.00,2013-01-12 02:07:00,
2013-01-11 21:12:00,35.6,34.8,30.15,SE,135,1.1,1.6,97,0.00,,---,0.13,VWS V14.00,2013-01-12 02:12:00,
2013-01-11 21:17:00,35.6,34.8,30.15,SE,135,1.6,1.6,97,0.00,,---,0.13,VWS V14.00,2013-01-12 02:17:00,
2013-01-11 21:22:00,35.8,35.0,30.15,SE,135,0.0,1.3,97,0.00,,---,0.13,VWS V14.00,2013-01-12 02:22:00,
2013-01-11 21:27:00,35.6,34.8,30.15,ESE,112,1.1,1.6,97,0.00,,---,0.13,VWS V14.00,2013-01-12 02:27:00,
2013-01-11 21:32:00,35.8,35.0,30.15,SE,135,1.6,5.4,97,0.00,,---,0.13,VWS V14.00,2013-01-12 02:32:00,
2013-01-11 21:37:00,36.0,35.2,30.15,East,90,2.5,2.5,97,0.00,,---,0.13,VWS V14.00,2013-01-12 02:37:00,
2013-01-11 21:42:00,36.1,35.6,30.15,SE,135,1.6,1.6,98,0.00,,---,0.13,VWS V14.00,2013-01-12 02:42:00,
2013-01-11 21:47:00,36.1,35.4,30.15,ESE,112,3.4,3.4,97,0.04,,---,0.17,VWS V14.00,2013-01-12 02:47:00,
2013-01-11 21:52:00,36.1,35.6,30.15,East,90,2.0,2.9,98,0.04,,---,0.17,VWS V14.00,2013-01-12 02:52:00,
2013-01-11 21:57:00,36.3,35.8,30.15,SE,135,1.1,2.7,98,0.04,,---,0.17,VWS V14.00,2013-01-12 02:57:00,
2013-01-11 22:02:00,36.5,36.0,30.15,East,90,2.2,2.5,98,0.04,,---,0.17,VWS V14.00,2013-01-12 03:02:00,
2013-01-11 22:07:00,36.5,36.0,30.15,East,90,1.6,2.2,98,0.04,,---,0.17,VWS V14.00,2013-01-12 03:07:00,
2013-01-11 22:12:00,36.7,36.2,30.12,ENE,68,0.9,2.2,98,0.00,,---,0.17,VWS V14.00,2013-01-12 03:12:00,
2013-01-11 22:17:00,36.7,36.2,30.12,SE,135,2.5,3.6,98,0.00,,---,0.17,VWS V14.00,2013-01-12 03:17:00,
2013-01-11 22:22:00,36.9,36.3,30.12,ENE,68,3.1,3.6,98,0.00,,---,0.17,VWS V14.00,2013-01-12 03:22:00,
2013-01-11 22:27:00,36.7,36.2,30.15,ENE,68,1.1,1.6,98,0.00,,---,0.17,VWS V14.00,2013-01-12 03:27:00,
2013-01-11 22:32:00,36.9,36.3,30.15,ESE,112,2.7,2.9,98,0.00,,---,0.17,VWS V14.00,2013-01-12 03:32:00,
2013-01-11 22:37:00,37.0,36.5,30.15,ENE,68,2.9,3.4,98,0.00,,---,0.17,VWS V14.00,2013-01-12 03:37:00,
2013-01-11 22:42:00,37.0,36.5,30.15,ESE,112,2.2,3.4,98,0.00,,---,0.17,VWS V14.00,2013-01-12 03:42:00,
2013-01-11 22:47:00,37.2,36.7,30.15,East,90,1.3,2.7,98,0.00,,---,0.17,VWS V14.00,2013-01-12 03:47:00,
2013-01-11 22:52:00,37.2,36.7,30.15,ESE,112,2.9,2.9,98,0.00,,---,0.17,VWS V14.00,2013-01-12 03:52:00,
2013-01-11 22:57:00,37.2,36.7,30.12,ESE,112,0.0,1.3,98,0.00,,---,0.17,VWS V14.00,2013-01-12 03:57:00,
2013-01-11 23:02:00,37.0,36.5,30.12,ENE,68,0.0,0.0,98,0.00,,---,0.17,VWS V14.00,2013-01-12 04:02:00,
2013-01-11 23:07:00,37.4,36.9,30.12,ENE,68,3.4,3.4,98,0.00,,---,0.17,VWS V14.00,2013-01-12 04:07:00,
2013-01-11 23:12:00,37.4,36.9,30.15,ENE,68,0.9,1.6,98,0.00,,---,0.17,VWS V14.00,2013-01-12 04:12:00,
2013-01-11 23:17:00,37.4,36.9,30.15,ENE,68,0.0,1.3,98,0.00,,---,0.17,VWS V14.00,2013-01-12 04:17:00,
2013-01-11 23:22:00,37.4,36.9,30.15,ENE,68,2.7,2.7,98,0.00,,---,0.17,VWS V14.00,2013-01-12 04:22:00,
2013-01-11 23:27:00,37.4,36.9,30.15,ENE,68,1.6,1.6,98,0.00,,---,0.17,VWS V14.00,2013-01-12 04:27:00,
2013-01-11 23:32:00,37.6,37.1,30.15,ENE,68,2.0,2.0,98,0.00,,---,0.17,VWS V14.00,2013-01-12 04:32:00,
2013-01-11 23:37:00,37.4,36.9,30.15,ENE,68,0.0,0.0,98,0.00,,---,0.17,VWS V14.00,2013-01-12 04:37:00,
2013-01-11 23:42:00,37.6,37.1,30.15,ENE,68,0.0,0.0,98,0.00,,---,0.17,VWS V14.00,2013-01-12 04:42:00,
2013-01-11 23:47:00,37.6,37.1,30.15,ENE,68,0.0,0.0,98,0.00,,---,0.17,VWS V14.00,2013-01-12 04:47:00,
2013-01-11 23:52:00,37.6,37.1,30.15,ENE,68,0.0,0.0,98,0.00,,---,0.17,VWS V14.00,2013-01-12 04:52:00,
2013-01-11 23:57:00,37.6,37.1,30.15,ENE,68,0.9,0.9,98,0.00,,---,0.17,VWS V14.00,2013-01-12 04:57:00,